TimeCDT,TemperatureF,Dew PointF,Humidity,Sea Level PressureIn,VisibilityMPH,Wind Direction,Wind SpeedMPH,Gust SpeedMPH,PrecipitationIn,Events,Conditions,WindDirDegrees,DateUTC
12:13 AM,41.0,32.0,70,29.75,10.0,NW,6.9,-,N/A,,Scattered Clouds,310,2014-05-03 05:13:00
12:33 AM,41.0,33.8,76,29.75,10.0,NW,6.9,-,N/A,,Mostly Cloudy,310,2014-05-03 05:33:00
12:53 AM,41.0,33.8,76,29.75,10.0,NW,8.1,-,N/A,,Mostly Cloudy,320,2014-05-03 05:53:00
1:13 AM,41.0,33.8,76,29.75,10.0,NW,8.1,-,N/A,,Scattered Clouds,320,2014-05-03 06:13:00
1:33 AM,41.0,33.8,76,29.76,10.0,NNW,6.9,-,N/A,,Mostly Cloudy,330,2014-05-03 06:33:00
1:53 AM,42.8,33.8,70,29.76,10.0,NNW,5.8,-,N/A,,Mostly Cloudy,330,2014-05-03 06:53:00
2:13 AM,41.0,33.8,76,29.76,10.0,NNW,4.6,-,N/A,,Overcast,340,2014-05-03 07:13:00
2:33 AM,42.8,35.6,76,29.76,10.0,North,4.6,-,N/A,,Overcast,350,2014-05-03 07:33:00
2:53 AM,42.8,35.6,76,29.76,10.0,NNW,4.6,-,N/A,,Overcast,340,2014-05-03 07:53:00
3:13 AM,41.0,35.6,81,29.76,10.0,NNW,5.8,-,N/A,,Mostly Cloudy,340,2014-05-03 08:13:00
3:33 AM,39.2,33.8,81,29.77,10.0,West,4.6,-,N/A,,Scattered Clouds,280,2014-05-03 08:33:00
3:53 AM,37.4,35.6,93,29.77,10.0,WNW,4.6,-,N/A,,Clear,290,2014-05-03 08:53:00
4:13 AM,37.4,35.6,93,29.77,10.0,WNW,5.8,-,N/A,,Clear,290,2014-05-03 09:13:00
4:33 AM,37.4,35.6,93,29.77,10.0,NW,4.6,-,N/A,,Scattered Clouds,310,2014-05-03 09:33:00
4:53 AM,35.6,33.8,93,29.77,10.0,NW,4.6,-,N/A,,Clear,310,2014-05-03 09:53:00
5:13 AM,35.6,33.8,93,29.77,10.0,NW,4.6,-,N/A,,Clear,310,2014-05-03 10:13:00
5:33 AM,37.4,35.6,93,29.78,10.0,NW,4.6,-,N/A,,Clear,310,2014-05-03 10:33:00
5:53 AM,35.6,33.8,93,29.78,10.0,West,4.6,-,N/A,,Clear,280,2014-05-03 10:53:00
6:13 AM,35.6,33.8,93,29.79,10.0,West,3.5,-,N/A,,Scattered Clouds,260,2014-05-03 11:13:00
6:33 AM,33.8,32.0,93,29.79,7.0,West,4.6,-,N/A,,Clear,270,2014-05-03 11:33:00
6:53 AM,37.4,35.6,93,29.80,10.0,WNW,8.1,-,N/A,,Clear,290,2014-05-03 11:53:00
7:13 AM,37.4,35.6,93,29.81,10.0,NW,8.1,-,N/A,,Clear,310,2014-05-03 12:13:00
7:33 AM,39.2,35.6,87,29.82,10.0,NW,10.4,-,N/A,,Clear,320,2014-05-03 12:33:00
7:53 AM,39.2,35.6,87,29.82,10.0,NNW,11.5,-,N/A,,Clear,330,2014-05-03 12:53:00
8:13 AM,41.0,37.4,87,29.82,10.0,NNW,17.3,-,N/A,,Clear,330,2014-05-03 13:13:00
8:33 AM,42.8,35.6,76,29.83,10.0,NNW,18.4,-,N/A,,Scattered Clouds,340,2014-05-03 13:33:00
8:53 AM,42.8,35.6,76,29.84,10.0,NNW,16.1,24.2,N/A,,Scattered Clouds,340,2014-05-03 13:53:00
9:13 AM,44.6,37.4,76,29.84,10.0,NNW,15.0,19.6,N/A,,Scattered Clouds,340,2014-05-03 14:13:00
9:33 AM,46.4,35.6,66,29.84,10.0,North,11.5,18.4,N/A,,Scattered Clouds,350,2014-05-03 14:33:00
9:53 AM,46.4,35.6,66,29.84,10.0,NNW,16.1,20.7,N/A,,Scattered Clouds,330,2014-05-03 14:53:00
10:13 AM,46.4,35.6,66,29.84,10.0,NW,18.4,21.9,N/A,,Scattered Clouds,320,2014-05-03 15:13:00
10:33 AM,46.4,33.8,62,29.85,10.0,NNW,18.4,23.0,N/A,,Scattered Clouds,340,2014-05-03 15:33:00
10:53 AM,46.4,33.8,62,29.85,10.0,NW,23.0,26.5,N/A,,Clear,310,2014-05-03 15:53:00
11:13 AM,48.2,33.8,58,29.86,10.0,NW,15.0,24.2,N/A,,Clear,320,2014-05-03 16:13:00
11:33 AM,48.2,32.0,54,29.85,10.0,NW,19.6,25.3,N/A,,Clear,320,2014-05-03 16:33:00
11:53 AM,50.0,32.0,50,29.86,10.0,NNW,20.7,25.3,N/A,,Clear,330,2014-05-03 16:53:00
12:13 PM,50.0,32.0,50,29.85,10.0,NNW,21.9,27.6,N/A,,Scattered Clouds,340,2014-05-03 17:13:00
12:33 PM,50.0,32.0,50,29.86,10.0,NNW,19.6,26.5,N/A,,Scattered Clouds,330,2014-05-03 17:33:00
12:53 PM,51.8,33.8,50,29.85,10.0,WNW,20.7,-,N/A,,Scattered Clouds,300,2014-05-03 17:53:00
1:13 PM,51.8,32.0,47,29.85,10.0,NW,20.7,26.5,N/A,,Scattered Clouds,320,2014-05-03 18:13:00
1:33 PM,51.8,33.8,50,29.86,10.0,NW,16.1,32.2,N/A,,Scattered Clouds,320,2014-05-03 18:33:00
1:53 PM,51.8,32.0,47,29.86,10.0,NW,18.4,29.9,N/A,,Scattered Clouds,310,2014-05-03 18:53:00
2:13 PM,51.8,30.2,44,29.86,10.0,NW,23.0,27.6,N/A,,Scattered Clouds,310,2014-05-03 19:13:00
2:33 PM,51.8,32.0,47,29.86,10.0,NNW,19.6,26.5,N/A,,Mostly Cloudy,330,2014-05-03 19:33:00
2:53 PM,51.8,30.2,44,29.86,10.0,NW,20.7,29.9,N/A,,Mostly Cloudy,320,2014-05-03 19:53:00
3:13 PM,51.8,33.8,50,29.86,10.0,WNW,19.6,26.5,N/A,,Mostly Cloudy,300,2014-05-03 20:13:00
3:53 PM,53.6,30.2,41,29.87,10.0,NW,25.3,31.1,N/A,,Mostly Cloudy,310,2014-05-03 20:53:00
4:13 PM,53.6,28.4,38,29.87,10.0,WNW,26.5,33.4,N/A,,Scattered Clouds,300,2014-05-03 21:13:00
4:33 PM,51.8,28.4,41,29.87,10.0,NW,21.9,29.9,N/A,,Scattered Clouds,310,2014-05-03 21:33:00
4:53 PM,51.8,28.4,41,29.87,10.0,NW,28.8,35.7,N/A,,Mostly Cloudy,310,2014-05-03 21:53:00
5:13 PM,50.0,28.4,43,29.88,10.0,NW,24.2,28.8,N/A,,Mostly Cloudy,310,2014-05-03 22:13:00
5:53 PM,51.8,28.4,41,29.88,10.0,NW,23.0,29.9,N/A,,Mostly Cloudy,310,2014-05-03 22:53:00
6:13 PM,50.0,26.6,40,29.89,10.0,NW,23.0,29.9,N/A,,Mostly Cloudy,320,2014-05-03 23:13:00
6:33 PM,50.0,28.4,43,29.89,10.0,NNW,21.9,28.8,N/A,,Overcast,340,2014-05-03 23:33:00
6:53 PM,48.2,28.4,46,29.90,10.0,NNW,20.7,29.9,N/A,,Scattered Clouds,340,2014-05-03 23:53:00
7:13 PM,46.4,28.4,50,29.91,10.0,North,17.3,32.2,N/A,,Scattered Clouds,360,2014-05-04 00:13:00
7:33 PM,44.6,28.4,53,29.92,10.0,North,20.7,28.8,N/A,,Scattered Clouds,350,2014-05-04 00:33:00
7:53 PM,42.8,26.6,53,29.93,10.0,North,19.6,29.9,N/A,,Scattered Clouds,350,2014-05-04 00:53:00
8:12 PM,42.8,24.8,49,29.94,10.0,North,16.1,34.5,N/A,,Clear,350,2014-05-04 01:12:00
8:33 PM,39.2,24.8,56,29.95,10.0,North,17.3,27.6,N/A,,Clear,350,2014-05-04 01:33:00
8:53 PM,39.2,24.8,56,29.97,10.0,North,13.8,21.9,N/A,,Scattered Clouds,350,2014-05-04 01:53:00
9:12 PM,39.2,24.8,56,29.98,10.0,NNW,12.7,-,N/A,,Scattered Clouds,340,2014-05-04 02:12:00
9:33 PM,39.2,24.8,56,29.99,10.0,North,13.8,20.7,N/A,,Scattered Clouds,350,2014-05-04 02:33:00
9:53 PM,37.4,24.8,60,30.00,10.0,NNW,11.5,-,N/A,,Clear,340,2014-05-04 02:53:00
10:13 PM,37.4,24.8,60,30.00,10.0,NNW,10.4,-,N/A,,Clear,340,2014-05-04 03:13:00
10:33 PM,37.4,24.8,60,30.01,10.0,NNW,9.2,-,N/A,,Clear,340,2014-05-04 03:33:00
10:53 PM,35.6,24.8,65,30.01,10.0,North,6.9,-,N/A,,Clear,350,2014-05-04 03:53:00
11:13 PM,35.6,26.6,70,30.02,10.0,NNW,6.9,-,N/A,,Clear,340,2014-05-04 04:13:00
11:33 PM,35.6,26.6,70,30.02,10.0,NNW,9.2,-,N/A,,Clear,340,2014-05-04 04:33:00
11:53 PM,33.8,26.6,75,30.02,10.0,NNW,5.8,-,N/A,,Clear,330,2014-05-04 04:53:00